Wind_Speed
62 63 64 63 64 63 62 61 60 58 55 53 51 49 46 45 43 41 42 40 43 44 45 44 45 44 42 40 38 37 36 35 34
62 63 65 65 64 64 66 67 66 63 62 59 58 54 52 50 49 47 45 43 41 43 45 46 45 45 46 44 43 41 40 39 37
67 68 68 66 65 65 68 70 72 70 67 64 63 61 57 56 55 53 51 48 46 45 43 47 47 46 47 47 47 45 43 42 41
74 72 73 71 71 71 71 71 73 74 74 71 70 67 63 61 60 57 56 55 52 52 47 45 45 47 47 47 48 48 47 46 45
80 79 78 76 77 79 77 78 75 74 75 76 75 72 69 68 68 64 62 59 57 56 53 50 48 44 46 45 47 49 50 49 48
80 83 85 85 86 86 86 87 85 79 75 77 77 77 74 74 75 71 68 63 62 62 59 57 55 52 49 46 46 48 47 50 51
58 58 61 63 69 70 73 81 85 89 84 79 80 79 78 77 78 76 73 71 68 66 64 63 60 58 56 53 49 48 49 49 52
40 40 43 46 51 50 56 72 78 83 88 86 81 81 79 77 78 79 76 74 73 72 70 67 65 64 60 57 54 52 51 52 50
39 39 39 41 40 39 41 52 70 81 87 87 86 84 83 81 80 80 77 75 76 75 73 73 70 67 65 63 58 55 51 52 54
40 42 44 44 43 43 42 44 49 53 65 79 86 86 85 82 83 82 80 79 80 78 76 75 73 70 69 68 65 61 56 53 53
44 45 47 47 47 43 42 42 43 46 53 61 66 73 82 84 83 83 82 81 83 82 81 80 78 73 72 72 70 66 61 58 55
46 47 47 49 49 48 43 45 45 44 50 55 58 61 65 72 81 83 84 86 88 84 83 84 83 80 77 76 74 72 66 63 60
39 43 49 51 51 51 49 45 47 48 48 50 52 53 54 55 56 61 69 80 82 87 87 87 87 87 83 80 79 76 73 69 66
38 38 40 44 50 54 53 51 49 50 52 53 53 54 53 53 53 52 52 53 59 70 82 87 89 88 88 88 85 80 79 75 70
46 44 42 41 41 46 53 57 54 53 55 58 59 59 59 59 58 57 57 56 55 54 55 59 76 87 90 90 91 87 84 79 77
53 49 48 46 43 40 44 52 59 57 56 57 59 62 65 64 64 61 61 61 60 61 59 57 57 63 79 87 93 91 88 86 82
60 57 51 47 47 42 40 41 50 59 60 59 59 60 63 66 68 66 64 63 62 62 63 65 64 63 61 71 83 92 94 91 88
52 49 45 42 42 41 39 37 38 48 58 61 60 60 63 66 67 68 68 66 65 64 63 64 66 66 67 61 68 82 92 96 93
37 33 30 28 29 33 34 35 32 36 44 53 59 59 61 64 65 67 68 67 67 67 67 66 66 67 67 68 62 67 80 89 96
31 28 26 22 21 23 26 31 30 28 30 36 44 52 57 58 61 64 64 63 65 66 67 67 68 70 70 69 69 64 70 81 86
Wind_Direction
263 259 257 255 253 254 252 252 250 247 245 244 244 245 246 248 249 247 245 248 243 242 241 240 241 241 241 241 239 240 240 238 236
263 263 261 258 255 254 254 251 251 250 248 246 244 242 243 244 245 248 246 243 245 244 241 240 240 241 241 240 240 239 238 238 237
264 263 260 259 258 255 253 252 250 249 249 247 245 243 241 241 242 243 245 246 243 242 244 243 240 239 241 241 239 239 239 239 237
269 264 262 262 262 261 256 254 250 249 248 248 247 244 243 244 242 240 241 242 244 244 244 243 242 241 239 240 242 241 239 239 240
276 275 272 267 265 261 261 258 254 251 248 246 246 246 244 244 243 241 240 240 241 244 244 243 243 243 242 241 241 243 242 240 240
280 278 276 272 270 267 263 260 256 254 252 249 245 243 242 243 243 241 240 239 240 242 242 242 241 242 242 242 243 244 243 243 242
274 272 272 271 272 268 264 263 257 253 250 249 247 243 241 242 242 242 240 240 239 240 242 243 243 242 242 244 243 243 244 244 242
267 267 270 271 266 266 255 245 245 246 246 246 246 245 243 242 242 242 240 239 239 239 239 240 241 243 244 243 242 242 242 243 245
275 271 267 268 268 267 265 254 244 238 237 237 238 241 243 240 241 241 240 240 241 239 238 238 239 240 242 243 242 241 242 242 241
278 275 274 273 270 267 263 256 253 246 240 236 233 234 238 240 239 239 240 239 239 240 239 239 238 237 239 241 242 241 241 242 241
276 275 273 272 270 267 260 252 245 246 243 240 236 234 233 234 236 238 238 238 237 238 239 238 238 238 237 239 240 240 238 239 241
273 269 267 267 268 265 260 252 248 242 241 238 238 236 236 235 234 235 237 237 236 236 237 238 238 236 236 238 238 238 237 236 238
283 278 271 263 259 260 258 253 248 243 238 235 234 231 230 230 230 232 235 237 237 237 236 237 236 235 236 236 237 237 237 235 235
291 285 278 271 265 257 254 252 248 243 238 234 231 230 229 230 229 230 232 234 236 238 239 237 236 236 236 235 235 236 236 235 234
292 286 282 275 270 263 255 250 245 243 239 235 234 233 232 234 235 236 235 234 236 236 237 239 239 237 235 235 235 234 235 233 233
298 289 282 276 271 265 261 251 246 241 238 238 236 237 235 235 234 236 237 236 235 237 237 238 239 239 238 235 234 233 233 233 232
298 292 283 273 267 265 260 258 247 241 239 235 235 236 235 235 235 236 237 239 238 238 239 241 241 241 240 238 236 234 232 232 230
299 293 287 274 260 259 257 256 252 244 238 239 235 234 234 235 236 237 237 239 240 239 239 241 242 243 241 241 239 235 235 233 230
309 300 294 274 258 252 251 251 250 246 242 238 237 237 236 236 237 238 239 240 240 241 239 240 240 241 242 242 241 239 236 235 232
314 299 296 276 257 249 244 244 246 247 246 243 240 238 238 238 239 240 238 240 240 241 242 242 242 241 241 242 242 240 238 236 234
Height
5769 5769 5771 5773 5776 5776 5779 5782 5785 5787 5791 5794 5798 5801 5805 5808 5810 5814 5816 5818 5821 5824 5828 5831 5834 5838 5842 5846 5848 5852 5855 5858 5861
5754 5754 5756 5758 5762 5764 5764 5765 5769 5774 5778 5782 5785 5790 5795 5798 5800 5803 5807 5810 5813 5816 5819 5822 5826 5830 5833 5837 5842 5846 5849 5852 5855
5737 5738 5740 5742 5744 5748 5750 5751 5754 5760 5763 5768 5772 5777 5783 5785 5788 5792 5796 5800 5803 5807 5810 5814 5818 5821 5825 5829 5833 5837 5841 5845 5849
5717 5721 5723 5724 5726 5728 5733 5734 5738 5743 5748 5753 5757 5763 5770 5773 5777 5780 5784 5789 5794 5797 5801 5805 5808 5813 5817 5821 5825 5829 5833 5838 5842
5696 5697 5700 5704 5706 5708 5711 5715 5720 5725 5731 5736 5741 5748 5756 5757 5760 5766 5770 5779 5783 5786 5791 5796 5800 5804 5808 5812 5817 5820 5824 5828 5833
5673 5675 5676 5679 5682 5684 5687 5692 5697 5704 5712 5718 5723 5727 5736 5738 5743 5752 5757 5766 5769 5773 5778 5784 5790 5794 5799 5803 5807 5812 5815 5820 5824
5652 5652 5653 5653 5652 5655 5660 5664 5673 5681 5690 5696 5702 5709 5717 5721 5727 5734 5744 5750 5755 5761 5766 5772 5778 5783 5789 5794 5798 5803 5808 5810 5815
5637 5638 5638 5640 5637 5634 5635 5636 5645 5655 5663 5674 5682 5690 5696 5704 5711 5716 5727 5734 5739 5746 5753 5759 5766 5772 5778 5783 5788 5793 5798 5802 5806
5627 5625 5624 5625 5624 5621 5620 5620 5623 5628 5639 5646 5658 5667 5676 5684 5692 5698 5709 5718 5722 5729 5736 5744 5751 5760 5766 5772 5776 5782 5787 5792 5796
5616 5614 5614 5613 5611 5610 5609 5610 5611 5614 5618 5625 5634 5643 5654 5664 5672 5680 5690 5699 5705 5712 5720 5728 5737 5745 5751 5758 5764 5771 5777 5782 5787
5606 5603 5601 5600 5600 5599 5598 5599 5600 5603 5607 5612 5617 5623 5632 5644 5652 5661 5669 5679 5687 5694 5702 5712 5720 5729 5736 5743 5750 5759 5765 5771 5776
5594 5592 5589 5587 5586 5586 5587 5588 5589 5591 5595 5600 5605 5610 5617 5624 5633 5641 5650 5660 5668 5675 5683 5694 5703 5712 5721 5727 5734 5743 5752 5758 5765
5580 5577 5575 5573 5573 5572 5574 5575 5577 5580 5584 5588 5593 5598 5605 5613 5619 5625 5633 5640 5649 5656 5665 5674 5683 5693 5703 5711 5719 5728 5737 5744 5752
5569 5564 5560 5557 5557 5557 5558 5561 5565 5568 5573 5578 5583 5588 5595 5602 5609 5614 5620 5626 5633 5640 5647 5655 5664 5674 5684 5694 5703 5712 5720 5730 5737
5557 5551 5547 5543 5541 5540 5542 5545 5549 5555 5560 5564 5571 5578 5583 5590 5597 5603 5607 5613 5620 5626 5633 5639 5647 5654 5664 5674 5685 5695 5704 5712 5721
5540 5536 5531 5528 5527 5526 5526 5528 5533 5538 5545 5551 5557 5562 5569 5576 5583 5589 5595 5600 5606 5613 5619 5625 5632 5638 5646 5654 5666 5676 5687 5696 5705
5517 5512 5511 5510 5511 5512 5513 5514 5517 5523 5529 5537 5543 5549 5556 5562 5568 5575 5581 5586 5591 5598 5605 5611 5618 5624 5631 5638 5647 5656 5667 5678 5688
5498 5491 5489 5490 5493 5496 5499 5502 5504 5508 5514 5521 5528 5534 5540 5547 5554 5561 5568 5574 5579 5584 5591 5596 5602 5609 5617 5623 5631 5637 5647 5658 5669
5483 5478 5476 5475 5478 5482 5487 5491 5494 5497 5501 5506 5514 5520 5527 5533 5540 5546 5552 5559 5565 5570 5577 5582 5588 5594 5602 5609 5616 5623 5627 5637 5648
5472 5469 5467 5466 5469 5472 5476 5481 5485 5489 5493 5497 5502 5508 5514 5520 5526 5531 5538 5544 5550 5555 5561 5567 5572 5578 5585 5592 5600 5606 5611 5618 5627